Weather History for Fort Polk, LA

Change the Weather History Date:

Thursday, October 10, 2013

  Actual Average (KPOE) Record (KPOE)
Temperature  
Mean Temperature 68 °F -  
Max Temperature 82 °F 76 °F 87 °F (2010)
Min Temperature 53 °F 57 °F 46 °F (2000)
Cooling Degree Days 2    
Growing Degree Days 18 (Base 50)    
Moisture  
Dew Point 57 °F    
Average Humidity 77    
Maximum Humidity 97    
Minimum Humidity 42    
Precipitation  
Precipitation 0.00 in - - ()
Sea Level Pressure  
Sea Level Pressure 30.04 in    
Wind  
Wind Speed 0 mph (North)    
Max Wind Speed 5 mph    
Max Gust Speed -    
Visibility 9 miles    
Events      
Averages and records for this station are not official NWS values.
T = Trace of Precipitation, MM = Missing Value Source: NWS Daily Summary

Daily Weather History Graph

Daily Weather History Graph

Search for Another Location

Airport:

Trip Planner

Search our weather history database for the weather conditions in past years. The results will help you decide how hot, cold, wet, or windy it might be!

Date:

Astronomy

Oct. 10, 2013 Rise Set
Actual Time 7:12 AM CDT 6:46 PM CDT
Civil Twilight 6:48 AM CDT 7:11 PM CDT
Nautical Twilight 6:20 AM CDT 7:39 PM CDT
Astronomical Twilight 5:52 AM CDT 8:07 PM CDT
Moon 12:51 PM CDT (10/10) 11:38 PM CDT (10/10)
Length of Visible Light 12h 22m
Length of Day
11h 33m
Waxing Crescent, 36% of the Moon is Illuminated
Oct 10
Waxing Crescent
Oct 11
First Quarter
Oct 18
Full
Oct 26
Last Quarter
Nov 3
New

Hourly Weather History & Observations

Time (CDT) Temp. Heat Index Dew Point Humidity Pressure Visibility Wind Dir Wind Speed Gust Speed Precip Events Conditions
12:56 AM 55.9 °F - 54.0 °F 93% 30.05 in 10.0 mi Calm Calm - N/A   Clear
1:56 AM 55.0 °F - 54.0 °F 96% 30.05 in 10.0 mi Calm Calm - N/A   Clear
2:56 AM 54.0 °F - 53.1 °F 97% 30.06 in 9.0 mi Calm Calm - N/A   Clear
3:56 AM 54.0 °F - 52.0 °F 93% 30.05 in 9.0 mi Calm Calm - N/A   Clear
4:56 AM 54.0 °F - 52.0 °F 93% 30.05 in 9.0 mi Calm Calm - N/A   Clear
5:56 AM 54.0 °F - 52.0 °F 93% 30.06 in 9.0 mi Calm Calm - N/A   Clear
6:56 AM 53.1 °F - 52.0 °F 96% 30.06 in 6.0 mi Calm Calm - N/A   Clear
7:10 AM 53.6 °F - 51.8 °F 94% 30.07 in 2.5 mi Calm Calm - N/A   Clear
7:17 AM 53.6 °F - 51.8 °F 94% 30.07 in 4.0 mi Calm Calm - N/A   Clear
7:56 AM 54.0 °F - 52.0 °F 93% 30.07 in 6.0 mi Calm Calm - N/A   Clear
8:56 AM 64.9 °F - 59.0 °F 81% 30.09 in 10.0 mi Calm Calm - N/A   Clear
9:56 AM 70.0 °F - 60.1 °F 71% 30.10 in 10.0 mi Calm Calm - N/A   Clear
10:56 AM 75.9 °F - 57.9 °F 54% 30.10 in 10.0 mi Calm Calm - N/A   Clear
11:56 AM 78.1 °F - 57.9 °F 50% 30.09 in 10.0 mi Variable 3.5 mph - N/A   Partly Cloudy
12:56 PM 79.0 °F - 57.9 °F 48% 30.06 in 10.0 mi Calm Calm - N/A   Clear
1:56 PM 81.0 °F 81.1 °F 57.9 °F 45% 30.03 in 10.0 mi Variable 3.5 mph - N/A   Clear
2:56 PM 82.0 °F 81.7 °F 57.0 °F 42% 30.01 in 10.0 mi Calm Calm - N/A   Clear
3:56 PM 82.0 °F 82.1 °F 59.0 °F 45% 29.99 in 10.0 mi Calm Calm - N/A   Clear
4:56 PM 82.0 °F 82.1 °F 59.0 °F 45% 29.97 in 10.0 mi Variable 3.5 mph - N/A   Clear
5:56 PM 79.0 °F - 61.0 °F 54% 29.98 in 10.0 mi Variable 4.6 mph - N/A   Clear
7:56 PM 70.0 °F - 62.1 °F 76% 29.99 in 10.0 mi Calm Calm - N/A   Clear
8:56 PM 64.9 °F - 62.1 °F 90% 29.99 in 10.0 mi Calm Calm - N/A   Clear
9:56 PM 62.1 °F - 60.1 °F 93% 29.99 in 9.0 mi Calm Calm - N/A   Mostly Cloudy
10:56 PM 61.0 °F - 59.0 °F 93% 29.99 in 7.0 mi Calm Calm - N/A   Clear
11:56 PM 61.0 °F - 59.0 °F 93% 29.99 in 5.0 mi Calm Calm - N/A   Clear